QPF
0.00 0.00 0.00 0.00 0.00 0.00 0.00 0.00 0.00 0.00 0.00 0.00 0.00 0.00 0.00 0.01 0.01 0.01 0.01 0.01 0.01 0.01 0.01 0.01 0.01 0.01 0.00 0.00 0.00 0.00 0.00 0.00 0.00 0.00 0.01 0.02 0.02 0.02 0.01 0.01 0.01 0.01 0.01
0.00 0.00 0.00 0.00 0.00 0.00 0.00 0.00 0.00 0.00 0.00 0.00 0.00 0.00 0.00 0.00 0.00 0.00 0.00 0.00 0.00 0.00 0.00 0.01 0.01 0.00 0.00 0.00 0.00 0.00 0.00 0.00 0.00 0.00 0.00 0.00 0.02 0.02 0.01 0.01 0.01 0.01 0.01
0.00 0.00 0.00 0.00 0.00 0.00 0.00 0.00 0.00 0.00 0.00 0.00 0.00 0.00 0.00 0.00 0.00 0.00 0.00 0.00 0.00 0.00 0.00 0.00 0.00 0.00 0.00 0.00 0.00 0.00 0.00 0.00 0.00 0.00 0.00 0.00 0.01 0.02 0.01 0.01 0.01 0.01 0.01
0.00 0.00 0.00 0.00 0.00 0.00 0.00 0.00 0.00 0.00 0.00 0.00 0.00 0.00 0.00 0.00 0.00 0.00 0.00 0.00 0.00 0.00 0.00 0.00 0.00 0.00 0.00 0.00 0.00 0.00 0.00 0.00 0.00 0.00 0.00 0.00 0.00 0.01 0.01 0.01 0.01 0.01 0.01
0.00 0.00 0.00 0.00 0.00 0.00 0.00 0.00 0.00 0.00 0.00 0.00 0.00 0.00 0.00 0.00 0.00 0.00 0.00 0.00 0.00 0.00 0.00 0.00 0.00 0.00 0.00 0.00 0.00 0.00 0.00 0.00 0.00 0.00 0.00 0.00 0.00 0.01 0.01 0.01 0.01 0.01 0.01
0.00 0.00 0.00 0.00 0.00 0.00 0.00 0.00 0.00 0.00 0.00 0.00 0.00 0.00 0.00 0.00 0.00 0.00 0.00 0.00 0.00 0.00 0.00 0.00 0.00 0.00 0.00 0.00 0.00 0.00 0.00 0.00 0.00 0.00 0.00 0.00 0.00 0.01 0.01 0.01 0.01 0.01 0.01
0.00 0.00 0.00 0.00 0.00 0.00 0.00 0.00 0.00 0.00 0.00 0.00 0.00 0.00 0.00 0.00 0.00 0.00 0.00 0.00 0.00 0.00 0.00 0.00 0.00 0.00 0.00 0.00 0.00 0.00 0.00 0.00 0.00 0.00 0.00 0.00 0.00 0.00 0.01 0.00 0.01 0.01 0.01
0.00 0.00 0.00 0.00 0.00 0.00 0.00 0.00 0.00 0.00 0.00 0.00 0.00 0.00 0.00 0.00 0.00 0.00 0.00 0.00 0.00 0.00 0.00 0.00 0.00 0.00 0.00 0.00 0.00 0.00 0.00 0.00 0.00 0.00 0.00 0.00 0.00 0.00 0.00 0.00 0.00 0.00 0.00
0.00 0.00 0.00 0.00 0.00 0.00 0.00 0.00 0.00 0.00 0.00 0.00 0.00 0.00 0.00 0.00 0.00 0.00 0.00 0.00 0.00 0.00 0.00 0.00 0.00 0.00 0.00 0.00 0.00 0.00 0.00 0.00 0.00 0.00 0.00 0.00 0.00 0.00 0.00 0.00 0.00 0.00 0.00
0.00 0.00 0.00 0.00 0.00 0.00 0.00 0.00 0.00 0.00 0.00 0.00 0.00 0.00 0.00 0.00 0.00 0.00 0.00 0.00 0.00 0.00 0.00 0.00 0.00 0.00 0.00 0.00 0.00 0.00 0.00 0.00 0.00 0.00 0.00 0.00 0.00 0.00 0.00 0.00 0.00 0.00 0.00
0.00 0.00 0.00 0.00 0.00 0.00 0.00 0.00 0.00 0.00 0.00 0.00 0.00 0.00 0.00 0.00 0.00 0.00 0.00 0.00 0.00 0.00 0.00 0.00 0.00 0.00 0.00 0.00 0.00 0.00 0.00 0.00 0.00 0.00 0.00 0.00 0.00 0.00 0.00 0.00 0.00 0.00 0.00
0.00 0.00 0.00 0.00 0.00 0.00 0.00 0.00 0.00 0.00 0.00 0.00 0.00 0.00 0.00 0.00 0.00 0.00 0.00 0.00 0.00 0.00 0.00 0.00 0.00 0.00 0.00 0.00 0.00 0.00 0.00 0.00 0.00 0.00 0.00 0.00 0.00 0.00 0.00 0.00 0.00 0.00 0.00
0.00 0.00 0.00 0.00 0.00 0.00 0.00 0.00 0.00 0.00 0.00 0.00 0.00 0.00 0.00 0.00 0.00 0.00 0.00 0.00 0.00 0.00 0.00 0.00 0.00 0.00 0.00 0.00 0.00 0.00 0.00 0.00 0.00 0.00 0.00 0.00 0.00 0.00 0.00 0.00 0.00 0.00 0.00
0.00 0.00 0.00 0.00 0.00 0.00 0.00 0.00 0.00 0.00 0.00 0.00 0.00 0.00 0.00 0.00 0.00 0.00 0.00 0.00 0.00 0.00 0.00 0.00 0.00 0.00 0.00 0.00 0.00 0.00 0.00 0.00 0.00 0.00 0.00 0.00 0.00 0.00 0.00 0.00 0.00 0.00 0.00
0.00 0.00 0.00 0.00 0.00 0.00 0.00 0.00 0.00 0.00 0.00 0.00 0.00 0.00 0.00 0.00 0.00 0.00 0.00 0.00 0.00 0.00 0.00 0.00 0.00 0.00 0.00 0.00 0.00 0.00 0.00 0.00 0.00 0.00 0.00 0.00 0.00 0.00 0.00 0.00 0.00 0.00 0.00
0.00 0.00 0.00 0.00 0.00 0.00 0.00 0.00 0.00 0.00 0.00 0.00 0.00 0.00 0.00 0.00 0.00 0.00 0.00 0.00 0.00 0.00 0.00 0.00 0.00 0.00 0.00 0.00 0.00 0.00 0.00 0.00 0.00 0.00 0.00 0.00 0.00 0.00 0.00 0.00 0.00 0.00 0.00
0.00 0.00 0.00 0.00 0.00 0.00 0.00 0.00 0.00 0.00 0.00 0.00 0.00 0.00 0.00 0.00 0.00 0.00 0.00 0.00 0.00 0.00 0.00 0.00 0.00 0.00 0.00 0.00 0.00 0.00 0.00 0.00 0.00 0.00 0.00 0.00 0.00 0.00 0.00 0.00 0.00 0.00 0.00
0.00 0.00 0.00 0.00 0.00 0.00 0.00 0.00 0.00 0.00 0.00 0.00 0.00 0.00 0.00 0.00 0.00 0.00 0.00 0.00 0.00 0.00 0.00 0.00 0.00 0.00 0.00 0.00 0.00 0.00 0.00 0.00 0.00 0.00 0.00 0.00 0.00 0.00 0.00 0.00 0.00 0.00 0.00
0.00 0.00 0.00 0.00 0.00 0.00 0.00 0.00 0.00 0.00 0.00 0.00 0.00 0.00 0.00 0.00 0.00 0.00 0.00 0.00 0.00 0.00 0.00 0.00 0.00 0.00 0.00 0.00 0.00 0.00 0.00 0.00 0.00 0.00 0.00 0.00 0.00 0.00 0.00 0.00 0.00 0.00 0.00
0.00 0.00 0.00 0.00 0.00 0.00 0.00 0.00 0.00 0.00 0.00 0.00 0.00 0.00 0.00 0.00 0.00 0.00 0.00 0.00 0.00 0.00 0.00 0.00 0.00 0.00 0.00 0.00 0.00 0.00 0.00 0.00 0.00 0.00 0.00 0.00 0.00 0.00 0.00 0.00 0.00 0.00 0.00
0.00 0.00 0.00 0.00 0.00 0.00 0.00 0.00 0.00 0.00 0.00 0.00 0.00 0.00 0.00 0.00 0.00 0.00 0.00 0.00 0.00 0.00 0.00 0.00 0.00 0.00 0.00 0.00 0.00 0.00 0.00 0.00 0.00 0.00 0.00 0.00 0.00 0.00 0.00 0.00 0.00 0.00 0.00
0.00 0.00 0.00 0.00 0.00 0.00 0.00 0.00 0.00 0.00 0.00 0.00 0.00 0.00 0.00 0.00 0.00 0.00 0.00 0.00 0.00 0.00 0.00 0.00 0.00 0.00 0.00 0.00 0.00 0.00 0.00 0.00 0.00 0.00 0.00 0.00 0.00 0.00 0.00 0.00 0.00 0.00 0.00
0.00 0.00 0.00 0.00 0.00 0.00 0.00 0.00 0.00 0.00 0.00 0.00 0.00 0.00 0.00 0.00 0.00 0.00 0.00 0.00 0.00 0.00 0.00 0.00 0.00 0.00 0.00 0.00 0.00 0.00 0.00 0.00 0.00 0.00 0.00 0.00 0.00 0.00 0.00 0.00 0.00 0.00 0.00
0.00 0.00 0.00 0.00 0.00 0.00 0.00 0.00 0.00 0.00 0.00 0.00 0.00 0.00 0.00 0.00 0.00 0.00 0.00 0.00 0.00 0.00 0.00 0.00 0.00 0.00 0.00 0.00 0.00 0.00 0.00 0.00 0.00 0.00 0.00 0.00 0.00 0.00 0.00 0.00 0.00 0.00 0.00
0.00 0.00 0.00 0.00 0.00 0.00 0.00 0.00 0.00 0.00 0.00 0.00 0.00 0.00 0.00 0.00 0.00 0.00 0.00 0.00 0.00 0.00 0.00 0.00 0.00 0.00 0.00 0.00 0.00 0.00 0.00 0.00 0.00 0.00 0.00 0.00 0.00 0.00 0.00 0.00 0.00 0.00 0.00
0.00 0.00 0.00 0.00 0.00 0.00 0.00 0.00 0.00 0.00 0.00 0.00 0.00 0.00 0.00 0.00 0.00 0.00 0.00 0.00 0.00 0.00 0.00 0.00 0.00 0.00 0.00 0.00 0.00 0.00 0.00 0.00 0.00 0.00 0.00 0.00 0.00 0.00 0.00 0.00 0.00 0.00 0.00
MSLP
1021.28 1021.26 1021.32 1021.49 1021.75 1022.08 1022.41 1022.72 1022.96 1023.11 1023.18 1023.20 1023.20 1023.22 1023.28 1023.39 1023.53 1023.69 1023.84 1023.96 1024.04 1024.07 1024.08 1024.07 1024.05 1024.03 1024.02 1024.01 1023.98 1023.91 1023.81 1023.67 1023.50 1023.31 1023.12 1022.95 1022.80 1022.69 1022.61 1022.55 1022.50 1022.44 1022.36
1020.58 1020.65 1020.80 1021.05 1021.38 1021.76 1022.15 1022.49 1022.77 1022.96 1023.09 1023.18 1023.27 1023.38 1023.54 1023.73 1023.95 1024.17 1024.35 1024.49 1024.56 1024.59 1024.57 1024.54 1024.50 1024.47 1024.46 1024.44 1024.42 1024.38 1024.30 1024.19 1024.05 1023.88 1023.71 1023.54 1023.38 1023.25 1023.13 1023.04 1022.96 1022.87 1022.78
1019.95 1020.10 1020.32 1020.64 1021.04 1021.47 1021.90 1022.29 1022.61 1022.86 1023.05 1023.22 1023.39 1023.58 1023.82 1024.08 1024.35 1024.60 1024.80 1024.94 1025.01 1025.02 1024.99 1024.93 1024.88 1024.85 1024.83 1024.83 1024.82 1024.80 1024.76 1024.69 1024.59 1024.45 1024.30 1024.14 1023.97 1023.82 1023.67 1023.53 1023.40 1023.29 1023.18
1019.44 1019.66 1019.96 1020.33 1020.78 1021.25 1021.72 1022.14 1022.50 1022.79 1023.04 1023.27 1023.50 1023.76 1024.05 1024.35 1024.64 1024.91 1025.11 1025.24 1025.30 1025.30 1025.27 1025.22 1025.17 1025.15 1025.15 1025.16 1025.18 1025.20 1025.20 1025.17 1025.11 1025.02 1024.89 1024.73 1024.55 1024.36 1024.17 1023.99 1023.82 1023.67 1023.55
1019.10 1019.38 1019.72 1020.14 1020.61 1021.11 1021.59 1022.03 1022.41 1022.73 1023.01 1023.28 1023.56 1023.85 1024.16 1024.48 1024.78 1025.03 1025.23 1025.35 1025.42 1025.43 1025.41 1025.39 1025.37 1025.38 1025.41 1025.46 1025.52 1025.57 1025.61 1025.63 1025.61 1025.54 1025.43 1025.28 1025.08 1024.86 1024.62 1024.39 1024.18 1024.01 1023.86
1018.93 1019.23 1019.61 1020.04 1020.52 1021.02 1021.50 1021.93 1022.32 1022.64 1022.94 1023.23 1023.52 1023.83 1024.14 1024.45 1024.74 1024.99 1025.17 1025.30 1025.38 1025.42 1025.45 1025.48 1025.52 1025.57 1025.65 1025.74 1025.84 1025.93 1026.00 1026.04 1026.05 1026.00 1025.90 1025.74 1025.52 1025.26 1024.99 1024.72 1024.47 1024.28 1024.13
1018.88 1019.20 1019.58 1020.01 1020.48 1020.96 1021.41 1021.82 1022.19 1022.51 1022.80 1023.09 1023.39 1023.69 1024.01 1024.31 1024.59 1024.82 1025.01 1025.15 1025.26 1025.35 1025.43 1025.52 1025.63 1025.75 1025.88 1026.01 1026.13 1026.24 1026.34 1026.40 1026.41 1026.37 1026.27 1026.09 1025.85 1025.57 1025.26 1024.96 1024.70 1024.49 1024.35
1018.90 1019.22 1019.59 1020.00 1020.44 1020.89 1021.31 1021.68 1022.02 1022.32 1022.60 1022.89 1023.19 1023.50 1023.81 1024.11 1024.39 1024.62 1024.82 1024.98 1025.13 1025.27 1025.41 1025.57 1025.74 1025.91 1026.08 1026.25 1026.39 1026.52 1026.61 1026.67 1026.68 1026.63 1026.52 1026.33 1026.07 1025.77 1025.45 1025.14 1024.87 1024.67 1024.55
1018.92 1019.22 1019.57 1019.97 1020.38 1020.79 1021.17 1021.51 1021.81 1022.10 1022.38 1022.67 1022.98 1023.31 1023.63 1023.94 1024.23 1024.47 1024.68 1024.87 1025.05 1025.23 1025.43 1025.63 1025.85 1026.06 1026.26 1026.44 1026.59 1026.71 1026.79 1026.84 1026.84 1026.78 1026.66 1026.46 1026.20 1025.90 1025.58 1025.28 1025.02 1024.84 1024.73
1018.86 1019.16 1019.50 1019.88 1020.28 1020.66 1021.01 1021.32 1021.60 1021.88 1022.16 1022.47 1022.81 1023.17 1023.52 1023.86 1024.17 1024.43 1024.66 1024.86 1025.06 1025.26 1025.48 1025.71 1025.95 1026.19 1026.40 1026.57 1026.71 1026.82 1026.88 1026.91 1026.90 1026.83 1026.71 1026.52 1026.27 1025.98 1025.68 1025.40 1025.16 1025.00 1024.91
1018.68 1018.98 1019.34 1019.73 1020.13 1020.50 1020.84 1021.14 1021.41 1021.69 1021.99 1022.33 1022.71 1023.11 1023.51 1023.88 1024.21 1024.49 1024.73 1024.94 1025.13 1025.34 1025.56 1025.79 1026.03 1026.26 1026.46 1026.63 1026.75 1026.84 1026.88 1026.90 1026.87 1026.80 1026.69 1026.52 1026.30 1026.04 1025.77 1025.52 1025.31 1025.16 1025.08
1018.34 1018.68 1019.08 1019.51 1019.93 1020.31 1020.65 1020.95 1021.23 1021.53 1021.85 1022.23 1022.65 1023.10 1023.54 1023.95 1024.31 1024.61 1024.85 1025.05 1025.24 1025.43 1025.63 1025.84 1026.06 1026.27 1026.46 1026.60 1026.71 1026.78 1026.81 1026.81 1026.78 1026.72 1026.62 1026.48 1026.29 1026.08 1025.85 1025.63 1025.44 1025.31 1025.23
1017.84 1018.24 1018.70 1019.19 1019.66 1020.08 1020.44 1020.76 1021.05 1021.36 1021.72 1022.13 1022.59 1023.08 1023.57 1024.01 1024.40 1024.71 1024.95 1025.14 1025.31 1025.47 1025.64 1025.83 1026.03 1026.22 1026.38 1026.52 1026.61 1026.66 1026.68 1026.68 1026.65 1026.60 1026.52 1026.40 1026.26 1026.08 1025.90 1025.71 1025.54 1025.41 1025.31
1017.20 1017.67 1018.22 1018.78 1019.31 1019.77 1020.17 1020.51 1020.83 1021.16 1021.54 1021.98 1022.47 1022.99 1023.51 1023.98 1024.38 1024.71 1024.95 1025.13 1025.28 1025.43 1025.58 1025.75 1025.93 1026.11 1026.26 1026.39 1026.47 1026.52 1026.53 1026.51 1026.48 1026.43 1026.36 1026.27 1026.16 1026.02 1025.87 1025.72 1025.57 1025.43 1025.32
1016.45 1017.01 1017.64 1018.27 1018.86 1019.37 1019.81 1020.18 1020.52 1020.87 1021.26 1021.72 1022.22 1022.76 1023.29 1023.78 1024.20 1024.53 1024.79 1024.98 1025.14 1025.28 1025.44 1025.60 1025.78 1025.96 1026.11 1026.23 1026.31 1026.35 1026.34 1026.31 1026.26 1026.20 1026.13 1026.05 1025.96 1025.86 1025.74 1025.62 1025.48 1025.35 1025.23
1015.66 1016.28 1016.96 1017.65 1018.29 1018.85 1019.33 1019.73 1020.09 1020.46 1020.86 1021.31 1021.82 1022.35 1022.88 1023.38 1023.81 1024.17 1024.45 1024.67 1024.85 1025.03 1025.21 1025.40 1025.60 1025.79 1025.95 1026.07 1026.14 1026.16 1026.12 1026.06 1025.98 1025.89 1025.80 1025.72 1025.64 1025.56 1025.47 1025.37 1025.26 1025.14 1025.02
1014.89 1015.53 1016.24 1016.96 1017.63 1018.22 1018.73 1019.16 1019.55 1019.93 1020.33 1020.78 1021.27 1021.79 1022.31 1022.80 1023.24 1023.62 1023.94 1024.21 1024.45 1024.68 1024.91 1025.15 1025.38 1025.59 1025.77 1025.89 1025.94 1025.93 1025.86 1025.75 1025.62 1025.48 1025.36 1025.25 1025.17 1025.10 1025.03 1024.97 1024.90 1024.81 1024.70
1014.20 1014.82 1015.50 1016.21 1016.89 1017.50 1018.04 1018.50 1018.92 1019.32 1019.72 1020.16 1020.62 1021.11 1021.61 1022.09 1022.54 1022.94 1023.31 1023.64 1023.94 1024.24 1024.54 1024.84 1025.11 1025.36 1025.54 1025.66 1025.69 1025.64 1025.52 1025.35 1025.16 1024.96 1024.79 1024.66 1024.56 1024.49 1024.45 1024.43 1024.40 1024.35 1024.29
1013.64 1014.18 1014.81 1015.47 1016.13 1016.74 1017.30 1017.80 1018.25 1018.66 1019.07 1019.49 1019.93 1020.38 1020.84 1021.30 1021.75 1022.18 1022.58 1022.97 1023.35 1023.73 1024.10 1024.45 1024.77 1025.04 1025.23 1025.34 1025.34 1025.25 1025.08 1024.85 1024.60 1024.35 1024.13 1023.96 1023.84 1023.78 1023.76 1023.77 1023.79 1023.80 1023.80
1013.25 1013.68 1014.20 1014.79 1015.40 1016.01 1016.58 1017.11 1017.59 1018.03 1018.44 1018.84 1019.24 1019.64 1020.06 1020.48 1020.91 1021.35 1021.79 1022.23 1022.67 1023.11 1023.54 1023.95 1024.30 1024.59 1024.79 1024.88 1024.86 1024.74 1024.53 1024.26 1023.96 1023.67 1023.41 1023.20 1023.07 1023.01 1023.00 1023.05 1023.11 1023.18 1023.23
1013.05 1013.34 1013.74 1014.23 1014.79 1015.36 1015.94 1016.48 1016.99 1017.44 1017.85 1018.22 1018.57 1018.92 1019.28 1019.65 1020.05 1020.47 1020.92 1021.39 1021.88 1022.36 1022.84 1023.27 1023.66 1023.96 1024.16 1024.25 1024.23 1024.10 1023.87 1023.59 1023.27 1022.95 1022.67 1022.44 1022.29 1022.23 1022.23 1022.29 1022.39 1022.51 1022.61
1013.04 1013.19 1013.45 1013.84 1014.31 1014.85 1015.41 1015.96 1016.46 1016.91 1017.30 1017.63 1017.93 1018.21 1018.49 1018.79 1019.14 1019.52 1019.96 1020.43 1020.93 1021.44 1021.93 1022.39 1022.78 1023.10 1023.31 1023.42 1023.41 1023.30 1023.10 1022.84 1022.53 1022.22 1021.94 1021.71 1021.55 1021.47 1021.47 1021.54 1021.65 1021.78 1021.92
1013.21 1013.22 1013.35 1013.62 1014.01 1014.48 1015.00 1015.52 1016.01 1016.43 1016.78 1017.06 1017.28 1017.47 1017.66 1017.88 1018.15 1018.49 1018.88 1019.33 1019.82 1020.32 1020.81 1021.27 1021.67 1021.99 1022.23 1022.37 1022.41 1022.36 1022.22 1022.02 1021.77 1021.51 1021.25 1021.03 1020.87 1020.78 1020.75 1020.79 1020.89 1021.03 1021.17
1013.52 1013.42 1013.43 1013.59 1013.87 1014.26 1014.71 1015.18 1015.61 1015.98 1016.25 1016.45 1016.58 1016.67 1016.76 1016.89 1017.08 1017.34 1017.68 1018.09 1018.54 1019.00 1019.47 1019.92 1020.32 1020.66 1020.93 1021.12 1021.24 1021.27 1021.24 1021.14 1020.98 1020.79 1020.59 1020.39 1020.23 1020.11 1020.05 1020.06 1020.12 1020.23 1020.36
1013.93 1013.74 1013.65 1013.69 1013.87 1014.15 1014.51 1014.88 1015.23 1015.51 1015.69 1015.79 1015.82 1015.81 1015.80 1015.83 1015.93 1016.11 1016.38 1016.73 1017.12 1017.54 1017.97 1018.39 1018.78 1019.13 1019.44 1019.70 1019.91 1020.06 1020.15 1020.17 1020.13 1020.03 1019.90 1019.74 1019.58 1019.45 1019.36 1019.32 1019.33 1019.40 1019.50
1014.38 1014.12 1013.95 1013.88 1013.95 1014.11 1014.35 1014.61 1014.85 1015.01 1015.09 1015.08 1015.00 1014.89 1014.79 1014.73 1014.74 1014.85 1015.04 1015.31 1015.64 1016.00 1016.37 1016.75 1017.12 1017.48 1017.83 1018.15 1018.45 1018.72 1018.93 1019.09 1019.17 1019.18 1019.12 1019.02 1018.88 1018.74 1018.62 1018.54 1018.51 1018.54 1018.61
Thickness
5699 5698 5697 5693 5690 5687 5685 5683 5682 5680 5679 5678 5677 5676 5675 5674 5673 5672 5672 5671 5670 5670 5670 5669 5669 5669 5669 5670 5671 5672 5673 5673 5674 5676 5677 5680 5681 5682 5683 5683 5684 5686 5688
5709 5702 5699 5695 5691 5688 5685 5683 5681 5679 5677 5676 5675 5673 5672 5671 5670 5669 5667 5666 5666 5665 5665 5664 5664 5663 5663 5664 5665 5665 5666 5666 5667 5668 5669 5671 5674 5675 5676 5677 5678 5679 5681
5709 5704 5701 5696 5692 5689 5686 5683 5680 5678 5676 5674 5672 5671 5669 5667 5666 5665 5663 5662 5661 5660 5660 5659 5658 5658 5658 5658 5659 5659 5659 5659 5660 5660 5662 5664 5666 5668 5669 5670 5671 5672 5673
5710 5705 5702 5697 5693 5689 5686 5683 5680 5677 5675 5672 5670 5668 5666 5664 5663 5661 5660 5658 5657 5656 5655 5654 5653 5653 5653 5653 5653 5653 5653 5652 5652 5653 5655 5657 5659 5661 5662 5663 5664 5665 5666
5710 5706 5702 5698 5693 5689 5686 5682 5679 5676 5673 5671 5668 5666 5664 5662 5660 5658 5656 5654 5653 5652 5650 5649 5649 5648 5647 5647 5647 5647 5646 5645 5645 5646 5648 5650 5652 5653 5654 5655 5656 5657 5658
5709 5705 5701 5697 5693 5689 5686 5682 5679 5676 5673 5670 5667 5664 5662 5660 5658 5655 5653 5651 5649 5648 5646 5645 5644 5643 5643 5642 5642 5641 5640 5638 5638 5639 5641 5643 5645 5646 5647 5647 5648 5649 5650
5709 5704 5700 5696 5692 5688 5685 5681 5678 5675 5672 5669 5666 5663 5660 5658 5655 5653 5650 5648 5646 5644 5643 5641 5640 5639 5638 5637 5637 5636 5634 5632 5632 5632 5634 5636 5638 5639 5639 5640 5641 5641 5642
5708 5703 5698 5695 5691 5687 5683 5680 5677 5673 5670 5667 5664 5662 5659 5656 5653 5650 5648 5645 5643 5641 5639 5637 5636 5634 5633 5632 5631 5630 5629 5627 5626 5626 5627 5629 5631 5632 5632 5632 5633 5634 5634
5703 5699 5696 5693 5689 5685 5682 5678 5675 5672 5669 5666 5663 5660 5657 5654 5651 5648 5646 5643 5640 5638 5636 5634 5632 5630 5629 5628 5626 5625 5624 5621 5620 5620 5620 5622 5624 5625 5625 5624 5625 5626 5626
5698 5695 5693 5691 5688 5684 5680 5677 5673 5670 5667 5664 5661 5658 5655 5652 5649 5647 5643 5641 5638 5635 5633 5630 5628 5626 5624 5623 5622 5620 5618 5616 5615 5614 5614 5615 5616 5617 5617 5617 5617 5617 5618
5694 5692 5690 5688 5685 5682 5678 5675 5671 5668 5665 5662 5659 5656 5653 5650 5647 5644 5641 5638 5635 5632 5630 5627 5624 5622 5620 5618 5617 5615 5613 5611 5610 5609 5608 5609 5609 5609 5609 5609 5609 5609 5609
5695 5693 5690 5687 5683 5680 5676 5672 5670 5666 5663 5660 5657 5654 5651 5647 5644 5641 5637 5635 5632 5629 5626 5624 5621 5618 5616 5614 5612 5610 5608 5606 5605 5604 5603 5603 5603 5602 5602 5602 5601 5601 5601
5701 5694 5690 5686 5682 5678 5674 5671 5667 5664 5661 5658 5654 5651 5647 5643 5640 5637 5634 5631 5629 5626 5623 5620 5617 5614 5612 5609 5607 5605 5604 5602 5600 5599 5598 5597 5596 5596 5595 5594 5594 5593 5593
5698 5695 5691 5686 5682 5678 5673 5669 5665 5661 5658 5655 5652 5648 5644 5640 5636 5633 5630 5627 5624 5621 5618 5615 5612 5609 5606 5604 5602 5600 5599 5597 5595 5594 5593 5591 5590 5589 5589 5588 5587 5586 5585
5698 5695 5691 5686 5682 5677 5672 5668 5663 5659 5656 5652 5648 5644 5641 5636 5632 5628 5625 5622 5619 5616 5613 5609 5606 5603 5600 5598 5596 5595 5593 5592 5590 5588 5587 5585 5584 5583 5582 5581 5580 5578 5577
5700 5696 5691 5686 5682 5676 5671 5666 5663 5658 5653 5649 5645 5641 5637 5633 5628 5624 5620 5616 5613 5610 5607 5604 5600 5597 5594 5592 5590 5589 5588 5586 5584 5582 5580 5578 5577 5576 5574 5573 5572 5571 5569
5702 5697 5691 5686 5680 5675 5671 5666 5661 5656 5651 5646 5642 5638 5634 5630 5625 5620 5615 5612 5608 5605 5601 5597 5594 5590 5587 5585 5584 5582 5581 5580 5578 5576 5574 5572 5570 5568 5566 5565 5564 5563 5561
5700 5695 5690 5684 5678 5674 5669 5664 5659 5654 5649 5645 5640 5635 5631 5626 5621 5616 5611 5608 5603 5598 5595 5591 5587 5583 5581 5578 5577 5576 5575 5573 5571 5569 5567 5565 5562 5560 5558 5556 5555 5554 5552
5700 5694 5687 5682 5677 5672 5666 5661 5656 5651 5647 5642 5637 5632 5627 5622 5617 5612 5608 5603 5597 5592 5588 5584 5581 5577 5574 5571 5569 5568 5567 5566 5565 5563 5561 5558 5556 5554 5551 5548 5546 5544 5542
5698 5691 5685 5679 5674 5668 5660 5654 5649 5645 5642 5638 5634 5630 5624 5618 5612 5607 5603 5598 5591 5586 5582 5578 5575 5570 5568 5564 5560 5561 5560 5559 5558 5557 5555 5552 5550 5547 5544 5540 5537 5534 5532
5692 5687 5682 5676 5671 5662 5654 5649 5644 5642 5639 5635 5631 5627 5621 5615 5609 5603 5598 5592 5586 5582 5578 5573 5567 5562 5558 5551 5545 5547 5551 5552 5553 5553 5549 5547 5545 5541 5537 5533 5529 5525 5522
5685 5681 5677 5673 5667 5661 5656 5650 5644 5639 5634 5630 5625 5621 5616 5610 5605 5599 5594 5589 5583 5577 5572 5567 5560 5554 5550 5542 5536 5531 5534 5544 5550 5550 5547 5543 5540 5533 5529 5525 5520 5516 5512
5676 5673 5671 5667 5662 5657 5651 5643 5635 5629 5625 5621 5617 5615 5612 5607 5602 5596 5592 5585 5579 5573 5569 5563 5556 5548 5544 5537 5531 5524 5520 5535 5537 5541 5540 5538 5532 5526 5522 5516 5512 5507 5503
5667 5665 5662 5659 5654 5649 5642 5635 5629 5625 5623 5622 5618 5613 5608 5603 5598 5593 5587 5582 5576 5570 5566 5560 5552 5546 5538 5533 5524 5522 5521 5519 5516 5525 5528 5525 5522 5518 5513 5507 5503 5499 5494
5656 5654 5652 5649 5645 5640 5634 5629 5623 5620 5620 5616 5610 5605 5601 5597 5593 5588 5583 5577 5572 5567 5562 5556 5549 5542 5536 5531 5524 5516 5511 5507 5502 5497 5512 5513 5507 5507 5503 5497 5493 5489 5485
5645 5643 5641 5638 5635 5631 5625 5620 5615 5612 5609 5605 5601 5597 5595 5591 5587 5583 5577 5572 5568 5563 5558 5552 5544 5538 5533 5527 5521 5513 5506 5502 5502 5493 5494 5501 5496 5495 5491 5488 5484 5480 5475